Cam: Der Himmel über Mannheim, aktuelles Bild mit Wetterinformationen (Metar)



Der Himmel über Mannheim
Die WebCam zeigt nach Norden. (Feudenheim 3km, Vogelstang 6km, Frankfurt 70km)

Letzter SYNOP von MA-Vogelstang. Zeitformat[UTC].
Beispiel: 18hr entspricht 19:00 Uhr oder bei Sommerzeit 20 Uhr


Das aktuelle Wetter in Baden Wurttemberg, Neuostheim, Germany:

Baden Wurttemberg, Neuostheim, Germany stehen keine DATEN zur Verfügung.
METAR:

Das aktuelle Wetter in Mannheim, Seckenheim, Germany

0968: Neuester Wetterbericht von 14:20 Uhr. Der Wind war ruhig. Die Temperatur war 31 °C (88 °F) bei einem Taupunkt von 15 °C (59 °F). Die gefühlte Temperatur lag bei 31 °C (87 °F). Der Luftdruck stand auf 1013 hPa (29.91 inHg). Die relative Luftfeuchtigkeit erreichte 38.0%. Der Himmel war klar.
METAR: 09682 161320Z 00000KT SKC 31/15 Q1013

Mehr zum Thema Metar


Nach oben

HomeHome

Schnellzugriff auf diese Seite mit c.maw24.de oder cam.Mannheim-Wetter.Info


XHTML 1.0 Transitional